Location: Newark
(46.1333°N, 13.0333°E)
Time: 13:09:17
(UTC+00:00)

N. Korean satellite - Visible Passes

Search period start: 15 November 2019 00:00
Search period end: 25 November 2019 00:00
Orbit: 456 x 506 km, 97.2° (Epoch: 14 November)

Date Brightness Start Highest point End Pass type
(mag) Time Alt. Az. Time Alt. Az. Time Alt. Az.
15 Nov 8.0 04:43:22 10° NNE 04:46:57 43° E 04:50:28 10° S visible
15 Nov 9.2 16:54:49 10° SSW 16:57:51 25° W 17:00:55 10° NW visible
16 Nov 9.3 04:18:28 10° NE 04:21:26 22° E 04:24:23 10° SSE visible
16 Nov 7.7 16:28:49 10° S 16:32:20 49° W 16:35:56 10° NNW visible
17 Nov 10.2 03:54:25 10° ENE 03:55:50 12° E 03:57:15 10° ESE visible
17 Nov 6.7 05:25:55 10° N 05:29:34 55° WNW 05:33:10 10° SSW visible
17 Nov 6.6 16:03:19 10° SSE 16:06:56 79° ENE 16:10:38 10° N visible
18 Nov 6.9 05:00:30 10° NNE 05:04:13 72° ESE 05:07:53 10° S visible
18 Nov 9.9 17:12:52 10° SW 17:15:12 16° W 17:17:34 10° NW visible
19 Nov 8.4 04:35:20 10° NNE 04:38:46 35° E 04:42:08 10° SSE visible
19 Nov 8.8 16:46:22 10° SSW 16:49:37 30° W 16:52:57 10° NNW visible
20 Nov 9.6 04:10:35 10° NE 04:13:13 18° E 04:15:49 10° SE visible
20 Nov 7.2 16:20:33 10° S 16:24:09 63° W 16:27:50 10° NNW visible
21 Nov 6.5 05:17:42 10° N 05:21:25 69° WNW 05:25:02 10° SSW visible
21 Nov 10.4 17:31:59 10° W 17:32:35 10° W 17:33:09 10° W visible
22 Nov 7.3 04:52:21 10° NNE 04:56:01 57° E 04:59:36 10° S visible
22 Nov 9.6 17:04:11 10° SW 17:06:56 20° W 17:09:43 10° NW visible
23 Nov 8.8 04:27:17 10° NE 04:30:32 28° E 04:33:42 10° SSE visible
23 Nov 8.3 16:37:56 10° SSW 16:41:23 38° W 16:44:53 10° NNW visible
24 Nov 9.9 04:02:47 10° NE 04:04:55 15° E 04:07:03 10° SE visible
24 Nov 7.0 05:35:02 10° N 05:38:32 41° WNW 05:41:58 10° SW visible
24 Nov 6.8 16:12:16 10° S 16:15:56 80° W 16:19:40 10° NNW visible
